Regional Weather Roundup
Issued by NWS

Home | Current Version | Previous Version | Text Only | Print | Product List | Glossary Off
Versions: 1 2 3 4 5 6 7 8 9 10 11 12 13 14 15 16 17 18 19 20 21 22 23 24 25 26 27

000
ASUS45 KPSR 011710
RWRAZ

ARIZONA HOURLY REGIONAL WEATHER ROUNDUP
NATIONAL WEATHER SERVICE PHOENIX AZ
1000 AM MST WED MAR 01 2017

NOTE: FAIR INDICATES FEW OR NO CLOUDS BELOW 12,000 FEET WITH NO
SIGNIFICANT WEATHER AND/OR OBSTRUCTIONS TO VISIBILITY.

AZZ001>003-036-011800-
NORTHWEST ARIZONA

CITY           SKY/WX    TMP DP  RH WIND       PRES   REMARKS
BULLHEAD CITY  SUNNY     55  25  30 N22       30.36S
KINGMAN        SUNNY     48  15  26 N10       30.36R
$$

AZZ004>008-015-016-018-011800-
NORTH CENTRAL ARIZONA

CITY           SKY/WX    TMP DP  RH WIND       PRES   REMARKS
GRAND CANYON   SUNNY     30  15  53 NE13      30.37R WCI  20
WILLIAMS       SUNNY     27  18  69 CALM      30.34R
PRESCOTT       SUNNY     38  23  55 N5        30.34R WCI  34
FLAGSTAFF      SUNNY     29  13  51 E14G22    30.34R WCI  18
PAYSON         SUNNY     43  21  42 E8G14     30.34S
PAGE           SUNNY     40  11  30 E3        30.42R
$$

AZZ009>014-017-011800-
NORTHEAST ARIZONA

CITY           SKY/WX    TMP DP  RH WIND       PRES   REMARKS
WINSLOW        SUNNY     37  25  61 S3        30.42R
SAINT JOHNS    SUNNY     38  23  55 CALM      30.35R
WINDOW ROCK    SUNNY     25  13  60 W3        30.37R
SHOW LOW       SUNNY     32  25  74 N10       30.35S WCI  24
$$

AZZ023-011800-
GREATER PHOENIX AREA

CITY           SKY/WX    TMP DP  RH WIND       PRES   REMARKS
PHOENIX        SUNNY     58  39  49 N7        30.27R
BUCKEYE        SUNNY     55  39  54 W3        30.29S
GLENDALE       SUNNY     59  34  38 CALM      30.30R
LUKE AFB       SUNNY     59  34  39 N12       30.27R
DEER VALLEY    SUNNY     58  34  40 N5        30.27S
SCOTTSDALE     SUNNY     57  36  45 CALM      30.29R
MESA-FALCON    SUNNY    N/A N/A N/A N17       30.25R
MESA-GATEWAY   SUNNY     55  41  58 SW5       30.28R
CHANDLER       SUNNY     57  41  54 N7        30.28R
$$

AZZ027-028-011800-
SOUTHWEST MARICOPA COUNTY AND PINAL COUNTY

CITY           SKY/WX    TMP DP  RH WIND       PRES   REMARKS
CASA GRANDE    NOT AVBL
GILA BEND      FAIR      56  43  61 N7        30.28R
$$

AZZ503-504-507>509-011800-
SOUTHEAST ARIZONA

CITY           SKY/WX    TMP DP  RH WIND       PRES   REMARKS
TUCSON         SUNNY     58  39  49 VRB7      30.27R
DAVIS-MONTHAN  SUNNY     56  40  53 CALM      30.26R
RYAN FIELD     SUNNY     55  41  58 E7        30.28R
NOGALES        SUNNY     54  37  52 VRB3      30.24R
SIERRA VISTA   MOSUNNY   50  38  62 E3        30.28S
DOUGLAS        SUNNY     53  37  54 VRB3      30.28S
SAFFORD        SUNNY     49  38  65 CALM      30.29S
$$

AZZ020-021-025-026-031-011800-
SOUTHWEST ARIZONA

CITY           SKY/WX    TMP DP  RH WIND       PRES   REMARKS
YUMA           SUNNY     62  39  42 N14       30.29R
$$

CAZ031-033-041-043-047-048-061-011800-
SOUTHERN CALIFORNIA

CITY           SKY/WX    TMP DP  RH WIND       PRES   REMARKS
DOWNTOWN L.A.  SUNNY     60  36  40 CALM      30.28R
L.A. AIRPORT   SUNNY     60  39  45 NE6       30.28R
SAN DIEGO      SUNNY     58  45  62 CALM      30.27R
BURBANK        SUNNY     54  33  45 CALM      30.28R
ONTARIO        SUNNY     54  42  64 W5        30.28R
RIVERSIDE      SUNNY     56  41  57 E5        30.29R
PALM SPRINGS   SUNNY     64  39  39 W3        30.35R
EL CENTRO NAS  SUNNY     62  40  44 NW8       30.34R
IMPERIAL       SUNNY     60  48  64 NW7       30.31R
BLYTHE         SUNNY     56  40  55 CALM      30.33R
NEEDLES        SUNNY     58  28  32 N15       30.36R
$$

NVZ020-UTZ003-011800-
SOUTHERN NEVADA-UTAH

CITY           SKY/WX    TMP DP  RH WIND       PRES   REMARKS
LAS VEGAS      SUNNY     52  15  23 VRB3      30.40R
SALT LAKE CITY PTSUNNY   34  23  64 SE9       30.45R WCI  27
$$

NMZ009-TXZ055-011800-
NEW MEXICO-WEST TEXAS

CITY           SKY/WX    TMP DP  RH WIND       PRES   REMARKS
ALBUQUERQUE    SUNNY     39   4  23 N16       30.34R WCI  30
EL PASO        MOSUNNY   54  21  27 NE16      30.30R
$$


........................KEY........................
SKY/WX - SKY CONDITION/WEATHER
TMP    - TEMPERATURE IN FAHRENHEIT
DP     - DEW POINT IN FAHRENHEIT
RH     - RELATIVE HUMIDITY IN PERCENT
WIND   - DIRECTION AND SPEED IN MILES PER HOUR (MPH)
VRB    - VARIABLE WIND DIRECTION
PRES   - MEAN SEA LEVEL PRESSURE IN INCHES OF MERCURY
         F - FALLING PRESSURE   R - RISING PRESSURE
         S - STEADY PRESSURE
VSB    - VISIBILITY IN MILES
HX     - HEAT INDEX IN FAHRENHEIT
WCI    - WIND CHILL INDEX IN FAHRENHEIT
TC     - TEMPERATURE IN CELSIUS WHICH IS ALSO KNOWN AS
         TEMPERATURE IN CENTIGRADE
AFB    - AIR FORCE BASE
         LUKE AFB IS LUKE AIR FORCE BASE
         DAVIS-MONTHAN IS DAVIS-MONTHAN AIR FORCE BASE
NAS    - NAVAL AIR STATION
         EL CENTRO NAS IS EL CENTRO NAVAL AIR STATION
N/A    - NOT AVAILABLE





USA.gov is the U.S. government's official web portal to all federal, state and local government web resources and services.